Location: Casteau
(50.5142°N, 4.0161°E)
Time: 02:58:28
(UTC+00:00)

Explorer 11/Cluster Stage 4 - Pass Details

Date: 02 August 2021
Orbit: 467 x 1257 km, 28.8° (Epoch: 18 September)

Event Time Altitude Azimuth Distance (km) Brightness Sun altitude
Rises 11:27:43 0° 240° (WSW) 4,195 10.5 56.8°
Reaches altitude 10° 11:32:58 10° 214° (SSW) 3,203 10.2 56.9°
Maximum altitude 11:35:48 12° 193° (SSW) 2,999 10.3 57.0°
Drops below altitude 10° 11:38:34 10° 172° (S) 3,108 10.4 57.0°
Sets 11:43:27 0° 144° (SE) 3,927 10.6 57.1°
